Flag for Canada Weather past 2 weeks in Saskatoon, Saskatchewan, Canada

Now
32 °F

Passing clouds.


Feels Like: 26 °F
Forecast: 35 / 60 °F
Wind: 6 mph from South

Location: Saskatoon Weather Station

Current Time: Oct 23, 2014 at 3:42:41 AM

Latest Report: Oct 23, 2014 at 3:00 AM


Visibility: 15 mi

Pressure: 29.77 "Hg

Humidity: 100%

Dew point: 32 °F

Location of SaskatoonLocation

Historic Weather in Saskatoon — Graph

°F

Saskatoon temperature yesterday

Maximum temperature yesterday: 57 °F (at 4:00 PM)
Minimum temperature yesterday: 32 °F (at 11:00 PM)
Average temperature yesterday: 47 °F

Past Weeks' High & Low Weather Summary

 TemperatureHumidityPressure
High75 °F (Oct 20, 4:00 PM)100% (Oct 13, 5:00 AM)30.32 "Hg (Oct 13, 5:00 AM)
Low28 °F (Oct 8, 6:00 AM)25% (Oct 10, 5:00 PM)29.52 "Hg (Oct 11, 10:00 AM)
Average47 °F68%29.88 "Hg
* Reported Oct 8 2:00 AM — Oct 23 2:00 AM, Saskatoon, Weather by CustomWeather, © 2014

Note: Actual official high and low records may vary slightly from our data, if they occured in-between our weather recording intervals... More about our weather records

Advertising

Saskatoon weather history for previous 24 hours

 ConditionsComfort  
Time TempWeatherWind HumidityBarometerVisibility
2:00 AM
Oct 23
34 °FPassing clouds.6 mph93%29.78 "Hg15 mi
1:00 AM30 °FPassing clouds.2 mph100%29.80 "Hg15 mi
12:00 AM36 °FPassing clouds.5 mph93%29.79 "Hg15 mi
11:00 PM
Oct 22
32 °FClear.2 mph93%29.80 "Hg15 mi
10:46 PM36 °FClear.3 mph93%29.79 "Hg15 mi
10:00 PM39 °FClear.6 mph87%29.81 "Hg15 mi
9:00 PM37 °FClear.5 mph87%29.81 "Hg15 mi
8:00 PM37 °FClear.No wind87%29.81 "Hg15 mi
7:00 PM43 °FPassing clouds.7 mph81%29.81 "Hg15 mi
6:00 PM52 °FPassing clouds.3 mph72%29.78 "Hg15 mi
5:00 PM57 °FPartly sunny.5 mph59%29.75 "Hg15 mi
4:00 PM57 °FPartly sunny.6 mph63%29.77 "Hg15 mi
3:00 PM55 °FPartly sunny.8 mph63%29.76 "Hg15 mi
2:00 PM52 °FPartly sunny.5 mph77%29.76 "Hg15 mi
1:00 PM50 °FBroken clouds.7 mph82%29.76 "Hg15 mi
12:00 PM46 °FBroken clouds.9 mph93%29.78 "Hg15 mi
11:00 AM46 °FPartly sunny.8 mph93%29.78 "Hg15 mi
10:00 AM46 °FPartly sunny.8 mph87%29.76 "Hg15 mi
9:00 AM48 °FOvercast.9 mph82%29.75 "Hg15 mi
8:49 AM46 °FOvercast.8 mph93%29.75 "Hg15 mi
8:00 AM46 °FSprinkles. Overcast.10 mph93%29.74 "Hg15 mi
7:00 AM50 °FMostly cloudy.9 mph82%29.72 "Hg15 mi
6:00 AM46 °FMostly cloudy.7 mph87%29.71 "Hg15 mi
5:00 AM46 °FMostly cloudy.7 mph87%29.70 "Hg15 mi
4:00 AM48 °FMostly cloudy.13 mph82%29.67 "Hg15 mi
3:00 AM48 °FOvercast.7 mph76%29.68 "Hg15 mi
Weather by CustomWeather, © 2014

See weather overviewHow to use our weather pages